User: anonymous   Login
Location: Holyhead Bay
(53.3667°N, 4.6667°W)
Time: 08:07:00
(UTC+00:00)
Language:

ELECTRON KICK STAGE R/B - Orbit

View from above orbital plane
View from above orbital plane
View from above satellite
View from above satellite

Ground track
Ground track

The orbit data is extracted from the following two-line orbital elements,

1 44496U 19054B   21170.95088071  .00000433  00000-0  43242-4 0  9994
2 44496  45.0134 146.5243 0007028  60.0589 332.6156 15.08163419101181
Epoch (UTC): 19 June 2021 22:49:16
Eccentricity: 0.0007028
inclination: 45.0134°
perigee height: 537 km
apogee height: 546 km
right ascension of ascending node: 146.5243°
argument of perigee: 60.0589°
revolutions per day: 15.08163419
mean anomaly at epoch: 332.6156°
orbit number at epoch: 10118

The dashed part of the orbit path shows where the satellite is in the earth's shadow,  

DLR